Location: Bethany Dunes
(38.5632°N, 75.0582°W)
Time: 05:27:34
(UTC+00:00)

Daily predictions for brighter satellites

Satellite Brightness Start Highest point End
(mag) Time Altitude Azimuth Time Altitude Azimuth Time Altitude Azimuth
RESURS DK-1 3.5 00:03:18 10° NNW 00:05:59 37° NW 00:05:59 37° NW
Okean 2 Rocket 3.7 00:03:08 10° SSW 00:07:26 53° W 00:08:01 49° NW
Nadezhda 4 Rocket 4.2 00:04:31 10° NNW 00:10:47 70° W 00:16:56 10° S
ATLAS 2AS CENTAUR R/B 4.4 00:08:23 10° N 00:10:49 16° NNE 00:10:49 16° NNE
SJ 16-02 2.4 00:11:20 10° SW 00:15:05 43° W 00:15:05 43° W
ISS -0.7 00:13:33 10° WNW 00:14:17 13° NW 00:14:17 13° NW
ATLAS 2A CENTAUR R/B 4.3 00:09:48 10° WSW 00:16:42 22° SSW 00:17:16 21° S
Cosmos 2195 Rocket 4.4 00:18:17 10° N 00:24:37 83° W 00:25:05 77° SSW
ATLAS 5 CENTAUR R/B 4.1 00:21:43 10° WNW 00:25:43 24° WSW 00:30:21 10° SSW
USA 281 4.4 01:07:16 35° NW 01:07:16 35° NW 01:10:53 10° NNW
CZ-3 R/B 4.4 07:34:45 40° S 07:36:21 41° S 07:46:49 10° ESE
Cosmos 2237 Rocket 4.0 08:43:08 22° NNE 08:43:08 22° NNE 08:45:03 10° NNE
Cosmos 2278 Rocket 3.6 08:43:28 31° SE 08:43:28 31° SE 08:46:22 10° SE
SJ 16-02 4.3 08:41:28 11° NE 08:42:35 12° ENE 08:44:09 10° E
Cosmos 1943 Rocket 3.8 08:46:29 26° SE 08:46:29 26° SE 08:48:47 10° SSE
USA 267 3.2 08:47:30 10° NE 08:53:32 77° NE 08:53:32 77° NE
ATLAS 3B R/B 4.1 08:55:08 10° S 09:01:47 39° ESE 09:08:48 10° NE
Meteor 2-16 Rocket 4.4 09:03:06 76° ENE 09:03:06 76° ENE 09:09:02 10° N
Atlas 2A Centaur Rocket 4.3 09:18:28 19° S 09:18:28 19° S 09:20:26 10° SE
Cosmos 2292 Rocket 4.2 09:20:13 63° N 09:20:13 63° N 09:25:21 10° N
USA 234 4.3 09:22:17 10° E 09:28:14 38° NNE 09:31:50 22° NNW
Cosmos 1864 Rocket 4.4 09:30:10 34° NNW 09:33:01 66° W 09:39:17 10° S
SL-16 R/B 4.4 09:31:41 10° SSW 09:32:31 14° SSW 09:32:31 14° SSW
Cosmos 1624 Rocket 3.9 09:34:26 24° SSW 09:37:38 87° ESE 09:42:49 10° NNE
Cosmos 2061 Rocket 4.1 09:33:40 10° N 09:39:53 77° E 09:46:04 10° S
Cosmos 2251 Rocket 3.5 09:38:22 34° NNW 09:40:48 87° ENE 09:46:09 10° SSE
SL-16 R/B 2.4 09:37:13 10° SSW 09:42:52 73° ESE 09:48:32 10° NNE
PAYLOAD A 4.2 09:41:16 10° N 09:45:53 49° NW 09:45:53 49° NW
Cosmos 1725 Rocket 4.0 09:41:12 10° NNW 09:47:21 56° W 09:53:27 10° SSW
Cosmos 2233 Rocket 3.9 09:43:05 10° N 09:49:23 81° W 09:55:36 10° S
BREEZE-M DEB (TANK) 2.2 09:54:02 53° ESE 09:54:02 53° ESE 09:56:38 10° ENE
CZ-2C R/B 4.0 09:56:32 10° N 09:58:22 20° NNW 09:58:22 20° NNW
Cosmos 2346 Rocket 4.3 09:54:57 10° S 10:01:05 79° W 10:07:11 10° N
SJ-11-01 4.1 10:00:26 10° N 10:05:07 69° WNW 10:09:46 10° SSW
Cosmos 1190 Rocket 4.2 10:15:29 19° NW 10:19:04 48° WSW 10:24:02 10° S
SKYMED 2 3.5 10:15:01 10° SSE 10:19:20 87° ENE 10:23:42 10° NNW
Aureole 3 4.2 10:13:35 10° SSW 10:19:32 54° W 10:24:35 10° N
SJ 16-02 1.2 10:18:05 18° NNW 10:21:06 59° WSW 10:25:16 10° S
Cosmos 676 Rocket 3.9 10:16:18 10° NNW 10:21:32 80° WSW 10:26:41 10° SSE
COSMO-SKYMED 1 2.9 10:18:04 10° SSE 10:22:07 63° ENE 10:26:12 10° N
Cosmos 2237 Rocket 3.8 10:24:59 15° NW 10:24:59 15° NW 10:27:23 10° NNW
Cosmos 2278 Rocket 3.7 10:25:23 16° WSW 10:25:23 16° WSW 10:27:44 10° SW
Cosmos 1943 Rocket 3.9 10:28:04 13° WSW 10:28:04 13° WSW 10:29:15 10° SW
Cosmos 2056 Rocket 4.2 10:21:55 11° SW 10:26:32 33° WNW 10:31:24 10° N
USA 229 DEB 3.4 10:25:32 10° SW 10:31:15 58° NW 10:37:37 10° NNE
USA 229 3.4 10:25:45 10° SW 10:31:27 59° NW 10:37:50 10° NNE
Cosmos 2297 4.2 10:26:03 10° NNW 10:31:39 62° ENE 10:37:12 10° SE
Cosmos 1025 Rocket 3.7 10:27:53 10° S 10:32:08 58° E 10:36:25 10° NNE
Cosmos 1954 Rocket 4.3 10:28:36 11° NNW 10:33:12 44° WSW 10:38:03 10° S
Cosmos 1943 3.6 10:28:00 10° S 10:33:33 67° ESE 10:39:06 10° NNE
USA 267 4.1 10:30:58 10° NNE 10:36:34 32° NNW 10:40:54 16° W
Cosmos 2369 Rocket 2.5 10:31:01 10° NNW 10:36:43 71° ENE 10:42:24 10° SSE
Cosmos 1674 Rocket 3.5 10:33:26 10° S 10:37:51 83° W 10:42:17 10° N
Lacrosse 5 rocket 3.5 10:40:10 10° NNE 10:41:12 11° NNE 10:42:12 10° NE
IRS-1D 3.9 10:37:23 10° N 10:41:56 38° WNW 10:46:26 10° SW
Cosmos 1484 Rocket 2.5 10:40:03 10° NNE 10:43:35 85° ESE 10:47:05 10° S
SWARM A 4.2 10:40:27 10° SSW 10:43:41 55° W 10:46:57 10° N
Cosmos 1400 Rocket 2.5 10:40:45 10° N 10:44:26 89° WSW 10:48:04 10° S
Helios 1A Rocket 2.8 10:45:50 10° S 10:49:01 40° W 10:52:14 10° NNW
Cosmos 2221 Rocket 3.7 10:44:44 10° S 10:49:14 83° E 10:53:47 10° N
Cosmos 1869 4.2 10:47:38 13° NW 10:49:51 22° W 10:52:35 10° SW
Lacrosse 4 Rocket 4.0 10:48:38 10° NNE 10:50:26 13° NE 10:52:12 10° ENE
Cosmos 371 Rocket 3.9 10:46:12 10° NW 10:50:35 35° WSW 10:54:57 10° SSW
ATLAS 3B R/B 3.2 10:45:13 10° WSW 10:52:23 48° NW 10:59:57 10° NNE
Cosmos 968 Rocket 3.5 10:48:04 10° NNW 10:53:20 85° WSW 10:58:34 10° SSE
Cosmos 1812 3.2 10:53:54 10° NW 10:56:14 23° W 10:58:34 10° SW
Cosmos 1741 Rocket 4.3 10:52:08 10° NNW 10:57:28 76° ENE 11:02:44 10° SSE
CENTAUR R/B 3.5 10:50:44 10° NNW 10:59:25 84° ENE 11:08:57 10° SSE
Cosmos 2151 Rocket 3.6 10:55:56 10° NNW 11:00:21 62° W 11:04:43 10° S
Cosmos 1110 Rocket 4.4 10:57:00 10° SW 11:02:00 43° WNW 11:07:02 10° N
Cosmos 1378 Rocket 4.4 11:01:55 10° SW 11:05:31 27° WNW 11:09:10 10° NNW
Cosmos 1302 Rocket 4.2 11:00:29 10° SSW 11:05:37 80° ESE 11:10:49 10° NNE
Sich 1 Rocket 3.6 11:03:25 10° N 11:07:57 82° W 11:12:25 10° S
USA 234 3.4 11:04:25 10° SE 11:10:56 68° SW 11:17:29 10° NW
Thor Agena Rocket 3.7 11:07:15 10° NNE 11:12:28 83° ESE 11:17:33 10° SSW
Cosmos 1818 3.6 11:08:34 10° SSW 11:13:58 88° WNW 11:19:27 10° NNE
Tsikada Rocket 4.3 11:10:38 10° S 11:16:55 78° E 11:23:19 10° N
CZ-3 R/B 2.8 11:10:07 10° WSW 11:20:11 36° SSW 11:24:36 10° SE
